﻿"﻿最低氣溫 (攝氏度) - �Ҽw�]�D����"
"Minimum Temperature (°C) - Kai Tak Runway Park"
年/Year,月/Month,日/Day,數值/Value,"數據完整性/data Completeness"
2014,12,17,10.4,#
2014,12,18,12.0,#
2014,12,19,10.8,#
2014,12,20,12.2,C
2014,12,21,13.3,#
2014,12,22,10.5,#
2014,12,23,14.7,C
2014,12,24,15.9,C
2014,12,25,15.2,#
2014,12,26,15.2,#
2014,12,27,14.9,#
2014,12,28,12.2,#
2014,12,29,10.3,#
2014,12,30,12.2,#
2014,12,31,13.0,C
2015,1,1,14.3,#
2015,1,2,12.9,#
2015,1,3,14.0,#
2015,1,4,15.4,#
2015,1,5,18.0,#
2015,1,6,17.6,#
2015,1,7,16.3,#
2015,1,8,13.7,#
2015,1,9,13.7,#
2015,1,10,14.0,#
2015,1,11,14.8,#
2015,1,12,12.6,#
2015,1,13,12.0,#
2015,1,14,10.4,#
2015,1,15,10.9,#
2015,1,16,14.8,#
2015,1,17,14.4,#
2015,1,18,13.9,#
2015,1,19,13.3,#
2015,1,20,14.6,#
2015,1,21,13.8,#
2015,1,22,14.6,#
2015,1,23,15.0,#
2015,1,24,15.8,C
2015,1,25,16.5,#
2015,1,26,16.3,#
2015,1,27,16.9,#
2015,1,28,16.0,#
2015,1,29,14.7,#
2015,1,30,15.5,C
2015,1,31,13.7,#
2015,2,1,13.7,C
2015,2,2,14.8,#
2015,2,3,15.5,#
2015,2,4,14.0,#
2015,2,5,12.4,#
2015,2,6,10.7,#
2015,2,7,14.4,C
2015,2,8,13.2,#
2015,2,9,13.7,#
2015,2,10,12.7,#
2015,2,11,14.0,#
2015,2,12,15.0,C
2015,2,13,15.4,#
2015,2,14,17.2,#
2015,2,15,17.8,#
2015,2,16,17.3,#
2015,2,17,17.1,#
2015,2,18,17.1,#
2015,2,19,16.0,#
2015,2,20,15.6,C
2015,2,21,17.5,#
2015,2,22,18.6,C
2015,2,23,17.9,#
2015,2,24,17.7,#
2015,2,25,18.4,#
2015,2,26,18.9,#
2015,2,27,17.7,#
2015,2,28,17.1,#
2015,3,1,17.4,C
2015,3,2,16.6,#
2015,3,3,16.6,C
2015,3,4,16.0,#
2015,3,5,15.8,#
2015,3,6,16.1,C
2015,3,7,16.3,C
2015,3,8,16.7,C
2015,3,9,17.9,C
2015,3,10,15.8,C
2015,3,11,15.2,C
2015,3,12,14.5,C
2015,3,13,16.1,C
2015,3,14,18.6,C
2015,3,15,19.3,C
2015,3,16,19.5,C
2015,3,17,19.5,C
2015,3,18,19.9,#
2015,3,19,21.0,#
2015,3,20,19.9,#
2015,3,21,19.9,C
2015,3,22,19.4,C
2015,3,23,18.7,C
2015,3,24,18.0,C
2015,3,25,17.0,C
2015,3,26,17.1,C
2015,3,27,17.8,#
2015,3,28,19.4,C
2015,3,29,19.8,C
2015,3,30,20.5,#
2015,3,31,20.9,C
2015,4,1,21.3,#
2015,4,2,23.3,#
2015,4,3,24.2,#
2015,4,4,24.1,#
2015,4,5,23.0,#
2015,4,6,22.7,#
2015,4,7,21.1,#
2015,4,8,16.2,#
2015,4,9,16.1,#
2015,4,10,16.2,#
2015,4,11,15.8,#
2015,4,12,16.9,#
2015,4,13,18.2,#
2015,4,14,18.4,#
2015,4,15,17.9,#
2015,4,16,19.5,#
2015,4,17,20.4,#
2015,4,18,22.7,#
2015,4,19,25.5,#
2015,4,20,23.2,#
2015,4,21,22.3,#
2015,4,22,21.6,#
2015,4,23,22.1,#
2015,4,24,21.7,#
2015,4,25,22.0,#
2015,4,26,22.0,#
2015,4,27,21.9,#
2015,4,28,22.6,#
2015,4,29,24.0,#
2015,4,30,24.4,#
2015,5,1,24.9,#
2015,5,2,25.4,#
2015,5,3,26.7,#
2015,5,4,26.5,#
2015,5,5,24.0,#
2015,5,6,24.2,#
2015,5,7,25.7,#
2015,5,8,26.5,#
2015,5,9,23.8,#
2015,5,10,24.5,#
2015,5,11,23.3,#
2015,5,12,23.7,#
2015,5,13,25.4,C
2015,5,14,26.1,#
2015,5,15,26.4,C
2015,5,16,25.0,#
2015,5,17,24.7,C
2015,5,18,26.1,C
2015,5,19,27.6,C
2015,5,20,25.0,C
2015,5,21,22.9,C
2015,5,22,22.6,#
2015,5,23,23.8,C
2015,5,24,24.6,C
2015,5,25,25.1,#
2015,5,26,24.5,#
2015,5,27,27.7,C
2015,5,28,28.1,#
2015,5,29,28.7,#
2015,5,30,26.2,C
2015,5,31,26.8,#
2015,6,1,28.5,C
2015,6,2,27.6,#
2015,6,3,27.9,C
2015,6,4,27.9,C
2015,6,5,26.8,#
2015,6,6,26.3,#
2015,6,7,27.9,C
2015,6,8,28.0,#
2015,6,9,28.3,C
2015,6,10,26.2,C
2015,6,11,27.3,C
2015,6,12,25.0,C
2015,6,13,28.2,C
2015,6,14,27.4,C
2015,6,15,27.2,#
2015,6,16,26.3,C
2015,6,17,28.4,C
2015,6,18,28.7,#
2015,6,19,28.2,C
2015,6,20,27.3,#
2015,6,21,25.7,#
2015,6,22,26.9,#
2015,6,23,25.7,C
2015,6,24,26.1,#
2015,6,25,26.4,C
2015,6,26,27.0,C
2015,6,27,27.6,#
2015,6,28,27.4,#
2015,6,29,28.3,#
2015,6,30,29.0,#
2015,7,1,29.2,C
2015,7,2,29.0,#
2015,7,3,28.2,#
2015,7,4,27.9,#
2015,7,5,26.5,C
2015,7,6,26.8,#
2015,7,7,26.9,#
2015,7,8,26.7,C
2015,7,9,24.9,#
2015,7,10,25.4,C
2015,7,11,27.3,C
2015,7,12,28.2,#
2015,7,13,28.7,#
2015,7,14,27.3,C
2015,7,15,28.0,#
2015,7,16,27.1,#
2015,7,17,26.6,C
2015,7,18,27.6,C
2015,7,19,28.0,C
2015,7,20,25.8,#
2015,7,21,25.4,#
2015,7,22,24.6,#
2015,7,23,24.9,C
2015,7,24,26.7,#
2015,7,25,26.8,#
2015,7,26,25.8,#
2015,7,27,27.0,#
2015,7,28,26.8,#
2015,7,29,25.8,#
2015,7,30,25.8,#
2015,7,31,25.0,C
2015,8,1,25.6,#
2015,8,2,25.2,#
2015,8,3,25.7,#
2015,8,4,25.7,#
2015,8,5,25.8,#
2015,8,6,26.3,#
2015,8,7,26.7,#
2015,8,8,30.0,#
2015,8,9,25.5,#
2015,8,10,25.0,#
2015,8,11,25.9,#
2015,8,12,26.4,#
2015,8,13,26.1,#
2015,8,14,25.1,#
2015,8,15,24.9,#
2015,8,16,25.9,#
2015,8,17,28.2,#
2015,8,18,27.8,#
2015,8,19,28.0,#
2015,8,20,26.1,#
2015,8,21,27.0,#
2015,8,22,28.4,#
2015,8,23,28.2,#
2015,8,24,27.7,C
2015,8,25,27.0,C
2015,8,26,26.7,#
2015,8,27,26.6,#
2015,8,28,26.4,#
2015,8,29,26.1,#
2015,8,30,25.4,#
2015,8,31,25.4,C
2015,9,1,25.5,#
2015,9,2,24.1,#
2015,9,3,26.4,C
2015,9,4,26.3,#
2015,9,5,26.8,#
2015,9,6,28.2,C
2015,9,7,26.7,#
2015,9,8,26.5,#
2015,9,9,26.6,#
2015,9,10,26.4,C
2015,9,11,26.8,C
2015,9,12,26.6,C
2015,9,13,25.9,#
2015,9,14,26.1,#
2015,9,15,26.6,#
2015,9,16,27.3,#
2015,9,17,27.1,#
2015,9,18,26.7,C
2015,9,19,26.6,C
2015,9,20,26.8,C
2015,9,21,25.0,#
2015,9,22,27.2,#
2015,9,23,27.6,#
2015,9,24,27.5,C
2015,9,25,28.2,#
2015,9,26,25.2,#
2015,9,27,27.3,C
2015,9,28,25.9,#
2015,9,29,27.3,#
2015,9,30,28.1,C
2015,10,1,27.5,C
2015,10,2,26.5,#
2015,10,3,23.8,#
2015,10,4,24.8,C
2015,10,5,25.1,#
2015,10,6,25.6,C
2015,10,7,25.4,#
2015,10,8,25.9,#
2015,10,9,25.1,#
2015,10,10,21.2,#
2015,10,11,19.0,#
2015,10,12,21.3,#
2015,10,13,23.6,#
2015,10,14,23.5,#
2015,10,15,23.7,#
2015,10,16,24.0,C
2015,10,17,23.7,#
2015,10,18,23.1,#
2015,10,19,23.1,C
2015,10,20,23.7,C
2015,10,21,24.7,C
2015,10,22,24.8,#
2015,10,23,25.1,#
2015,10,24,25.2,C
2015,10,25,25.4,C
2015,10,26,24.4,#
2015,10,27,24.6,C
2015,10,28,25.3,C
2015,10,29,25.5,#
2015,10,30,25.3,C
2015,10,31,24.4,#
2015,11,1,20.2,C
2015,11,2,19.5,C
2015,11,3,21.8,C
2015,11,4,23.4,#
2015,11,5,24.7,#
2015,11,6,24.8,#
2015,11,7,25.4,#
2015,11,8,25.4,#
2015,11,9,25.1,#
2015,11,10,23.7,C
2015,11,11,22.2,C
2015,11,12,23.3,#
2015,11,13,21.6,#
2015,11,14,22.8,C
2015,11,15,24.5,#
2015,11,16,24.4,C
2015,11,17,25.0,C
2015,11,18,24.5,#
2015,11,19,24.6,C
2015,11,20,24.4,C
2015,11,21,24.2,C
2015,11,22,23.9,C
2015,11,23,23.8,#
2015,11,24,23.5,#
2015,11,25,17.7,C
2015,11,26,15.2,#
2015,11,27,16.4,#
2015,11,28,19.3,C
2015,11,29,20.5,#
2015,11,30,20.9,#
2015,12,1,22.1,C
2015,12,2,22.0,#
2015,12,3,19.0,#
2015,12,4,18.3,#
2015,12,5,15.7,#
2015,12,6,15.8,#
2015,12,7,15.4,#
2015,12,8,17.2,C
2015,12,9,17.0,C
2015,12,10,18.1,C
2015,12,11,18.1,#
2015,12,12,19.7,C
2015,12,13,20.0,C
2015,12,14,19.5,C
2015,12,15,15.7,#
2015,12,16,13.4,C
2015,12,17,11.5,#
2015,12,18,11.2,#
2015,12,19,14.5,#
2015,12,20,16.7,#
2015,12,21,17.2,C
2015,12,22,18.7,C
2015,12,23,19.7,C
2015,12,24,20.5,#
2015,12,25,15.7,C
2015,12,26,16.8,#
2015,12,27,16.9,#
2015,12,28,16.7,#
2015,12,29,16.0,C
2015,12,30,15.6,#
2015,12,31,15.3,C
2016,1,1,17.3,C
2016,1,2,17.5,C
2016,1,3,17.7,#
2016,1,4,19.3,C
2016,1,5,20.0,C
2016,1,6,19.5,#
2016,1,7,17.5,#
2016,1,8,17.1,#
2016,1,9,17.4,C
2016,1,10,17.5,C
2016,1,11,16.6,#
2016,1,12,16.4,C
2016,1,13,13.9,#
2016,1,14,15.6,#
2016,1,15,14.7,C
2016,1,16,16.0,C
2016,1,17,14.9,#
2016,1,18,12.1,C
2016,1,19,15.3,C
2016,1,20,15.0,C
2016,1,21,15.0,C
2016,1,22,10.2,C
2016,1,23,7.0,C
2016,1,24,3.3,C
2016,1,25,4.0,#
2016,1,26,8.4,C
2016,1,27,10.1,C
2016,1,28,15.2,#
2016,1,29,16.4,C
2016,1,30,16.0,C
2016,1,31,15.6,C
2016,2,1,10.8,C
2016,2,2,9.0,#
2016,2,3,10.4,#
2016,2,4,13.4,C
2016,2,5,11.9,#
2016,2,6,11.6,C
2016,2,7,9.5,C
2016,2,8,11.6,C
2016,2,9,13.4,C
2016,2,10,14.9,C
2016,2,11,17.0,C
2016,2,12,16.8,C
2016,2,13,19.3,C
2016,2,14,17.0,C
2016,2,15,11.4,#
2016,2,16,11.2,#
2016,2,17,11.1,#
2016,2,18,11.6,#
2016,2,19,14.9,#
2016,2,20,14.0,C
2016,2,21,14.8,C
2016,2,22,14.6,#
2016,2,23,13.3,C
2016,2,24,12.6,#
2016,2,25,13.9,C
2016,2,26,14.0,C
2016,2,27,14.4,C
2016,2,28,13.9,C
2016,2,29,13.5,C
2016,3,1,14.6,C
2016,3,2,14.5,C
2016,3,3,15.8,C
2016,3,4,17.3,C
2016,3,5,18.3,C
2016,3,6,18.2,#
2016,3,7,17.9,#
2016,3,8,18.6,#
2016,3,9,17.0,#
2016,3,10,10.4,#
2016,3,11,10.1,#
2016,3,12,12.6,#
2016,3,13,14.5,#
2016,3,14,14.4,C
2016,3,15,13.8,#
2016,3,16,14.0,#
2016,3,17,16.0,C
2016,3,18,17.1,#
2016,3,19,18.8,#
2016,3,20,17.2,C
2016,3,21,16.4,C
2016,3,22,16.1,#
2016,3,23,17.3,#
2016,3,24,13.5,#
2016,3,25,12.6,#
2016,3,26,12.9,#
2016,3,27,14.3,C
2016,3,28,15.6,#
2016,3,29,16.3,#
2016,3,30,18.7,C
2016,3,31,18.2,#
2016,4,1,18.9,#
2016,4,2,19.3,#
2016,4,3,19.8,#
2016,4,4,20.3,#
2016,4,5,19.7,C
2016,4,6,20.3,#
2016,4,7,20.5,#
2016,4,8,21.1,#
2016,4,9,22.8,C
2016,4,10,21.1,C
2016,4,11,20.2,C
2016,4,12,19.7,#
2016,4,13,20.4,#
2016,4,14,21.0,C
2016,4,15,20.3,C
2016,4,16,20.5,C
2016,4,17,22.1,#
2016,4,18,20.9,#
2016,4,19,20.0,C
2016,4,20,20.4,#
2016,4,21,21.0,#
2016,4,22,21.1,#
2016,4,23,21.7,#
2016,4,24,22.2,#
2016,4,25,22.8,#
2016,4,26,25.6,C
2016,4,27,25.2,C
2016,4,28,23.7,#
2016,4,29,22.7,#
2016,4,30,20.9,C
2016,5,1,20.6,#
2016,5,2,22.8,C
2016,5,3,23.4,C
2016,5,4,23.3,#
2016,5,5,25.4,C
2016,5,6,26.1,#
2016,5,7,26.0,C
2016,5,8,26.3,#
2016,5,9,25.7,#
2016,5,10,22.9,#
2016,5,11,24.0,#
2016,5,12,23.7,C
2016,5,13,24.5,#
2016,5,14,24.6,C
2016,5,15,24.7,C
2016,5,16,22.8,C
2016,5,17,22.8,#
2016,5,18,23.8,C
2016,5,19,24.2,C
2016,5,20,24.4,#
2016,5,21,24.7,#
2016,5,22,25.3,C
2016,5,23,24.8,#
2016,5,24,25.1,#
2016,5,25,25.6,C
2016,5,26,26.7,#
2016,5,27,25.7,#
2016,5,28,24.2,C
2016,5,29,27.1,#
2016,5,30,28.2,#
2016,5,31,28.5,C
2016,6,1,28.8,#
2016,6,2,29.0,#
2016,6,3,29.3,#
2016,6,4,24.6,C
2016,6,5,25.0,C
2016,6,6,24.5,#
2016,6,7,26.1,#
2016,6,8,24.3,C
2016,6,9,26.6,C
2016,6,10,26.5,#
2016,6,11,25.1,#
2016,6,12,25.6,C
2016,6,13,28.0,C
2016,6,14,29.1,#
2016,6,15,28.9,C
2016,6,16,27.7,#
2016,6,17,26.2,C
2016,6,18,27.6,#
2016,6,19,26.9,C
2016,6,20,27.4,C
2016,6,21,27.3,C
2016,6,22,27.7,#
2016,6,23,27.7,#
2016,6,24,27.2,#
2016,6,25,27.4,C
2016,6,26,28.2,C
2016,6,27,27.8,#
2016,6,28,26.2,#
2016,6,29,26.7,C
2016,6,30,28.4,#
2016,7,1,27.1,#
2016,7,2,27.0,#
2016,7,3,25.7,#
2016,7,4,28.0,#
2016,7,5,24.8,#
2016,7,6,24.5,#
2016,7,7,28.8,#
2016,7,8,28.0,#
2016,7,9,26.1,#
2016,7,10,26.6,#
2016,7,11,24.8,#
2016,7,12,27.2,#
2016,7,13,25.6,#
2016,7,14,26.4,#
2016,7,15,28.1,#
2016,7,16,29.0,#
2016,7,17,29.2,#
2016,7,18,27.0,#
2016,7,19,26.3,#
2016,7,20,25.6,#
2016,7,21,26.7,#
2016,7,22,27.0,#
2016,7,23,28.3,#
2016,7,24,28.0,#
2016,7,25,27.1,#
2016,7,26,26.1,#
2016,7,27,26.8,C
2016,7,28,26.8,C
2016,7,29,28.1,C
2016,7,30,27.0,C
2016,7,31,26.8,C
2016,8,1,27.1,C
2016,8,2,25.3,#
2016,8,3,25.3,C
2016,8,4,25.6,C
2016,8,5,25.9,#
2016,8,6,27.2,#
2016,8,7,28.0,#
2016,8,8,27.3,#
2016,8,9,25.2,#
2016,8,10,24.6,#
2016,8,11,25.1,#
2016,8,12,26.7,#
2016,8,13,26.2,#
2016,8,14,25.9,#
2016,8,15,25.9,#
2016,8,16,25.4,#
2016,8,17,25.8,#
2016,8,18,25.8,#
2016,8,19,26.0,#
2016,8,20,26.9,C
2016,8,21,23.9,C
2016,8,22,26.9,C
2016,8,23,26.6,C
2016,8,24,27.5,#
2016,8,25,27.6,#
2016,8,26,27.3,C
2016,8,27,27.6,#
2016,8,28,25.7,#
2016,8,29,25.4,C
2016,8,30,26.4,C
2016,8,31,26.1,C
2016,9,1,25.3,#
2016,9,2,26.9,#
2016,9,3,25.6,C
2016,9,4,26.8,#
2016,9,5,25.6,#
2016,9,6,25.8,C
2016,9,7,25.4,#
2016,9,8,26.1,#
2016,9,9,25.4,#
2016,9,10,25.1,C
2016,9,11,26.0,C
2016,9,12,26.4,#
2016,9,13,26.7,#
2016,9,14,26.7,#
2016,9,15,27.7,#
2016,9,16,27.6,#
2016,9,17,28.0,#
2016,9,18,26.3,#
2016,9,19,24.8,#
2016,9,20,23.0,#
2016,9,21,25.5,#
2016,9,22,26.8,#
2016,9,23,26.9,#
2016,9,24,27.2,#
2016,9,25,27.2,#
2016,9,26,27.3,#
2016,9,27,27.9,#
2016,9,28,28.4,#
2016,9,29,24.6,#
2016,9,30,23.9,#
2016,10,1,24.0,#
2016,10,2,26.1,#
2016,10,3,26.6,#
2016,10,4,26.7,#
2016,10,5,27.2,#
2016,10,6,25.3,#
2016,10,7,25.7,#
2016,10,8,27.3,#
2016,10,9,25.0,#
2016,10,10,23.6,#
2016,10,11,21.3,#
2016,10,12,22.9,#
2016,10,13,24.2,#
2016,10,14,24.7,#
2016,10,15,24.7,#
2016,10,16,26.8,#
2016,10,17,24.5,#
2016,10,18,24.7,#
2016,10,19,24.8,#
2016,10,20,25.1,#
2016,10,21,24.7,#
2016,10,22,26.3,#
2016,10,23,25.8,C
2016,10,24,26.1,#
2016,10,25,26.5,C
2016,10,26,26.0,#
2016,10,27,25.7,#
2016,10,28,26.3,C
2016,10,29,24.3,C
2016,10,30,22.4,C
2016,10,31,23.4,#
2016,11,1,22.7,#
2016,11,2,21.1,C
2016,11,3,19.6,C
2016,11,4,19.4,C
2016,11,5,21.1,C
2016,11,6,22.9,C
2016,11,7,23.9,C
2016,11,8,22.4,C
2016,11,9,18.7,#
2016,11,10,16.7,C
2016,11,11,17.1,C
2016,11,12,21.9,#
2016,11,13,23.8,#
2016,11,14,23.7,#
2016,11,15,23.3,#
2016,11,16,24.1,#
2016,11,17,24.1,#
2016,11,18,23.8,#
2016,11,19,24.4,#
2016,11,20,25.2,#
2016,11,21,24.1,#
2016,11,22,21.9,#
2016,11,23,17.3,#
2016,11,24,15.0,#
2016,11,25,17.8,#
2016,11,26,13.3,#
2016,11,27,12.6,#
2016,11,28,16.3,#
2016,11,29,17.9,#
2016,11,30,17.5,#
2016,12,1,16.9,#
2016,12,2,19.3,#
2016,12,3,20.1,#
2016,12,4,21.1,#
2016,12,5,21.9,#
2016,12,6,19.5,#
2016,12,7,18.4,#
2016,12,8,16.7,#
2016,12,9,16.1,#
2016,12,10,18.6,#
2016,12,11,19.8,#
2016,12,12,19.2,#
2016,12,13,21.0,C
2016,12,14,19.0,C
2016,12,15,15.6,#
2016,12,16,12.2,#
2016,12,17,14.0,#
2016,12,18,18.0,#
2016,12,19,19.0,#
2016,12,20,20.3,#
2016,12,21,21.1,#
2016,12,22,19.8,#
2016,12,23,19.1,C
2016,12,24,17.3,C
2016,12,25,18.7,#
2016,12,26,19.8,#
2016,12,27,12.8,#
2016,12,28,11.4,C
2016,12,29,14.3,#
2016,12,30,15.0,#
2016,12,31,16.1,#
2017,1,1,18.7,#
2017,1,2,18.6,#
2017,1,3,18.3,#
2017,1,4,19.0,#
2017,1,5,19.1,#
2017,1,6,19.8,#
2017,1,7,19.8,#
2017,1,8,19.9,#
2017,1,9,19.6,#
2017,1,10,19.0,#
2017,1,11,18.4,#
2017,1,12,16.4,#
2017,1,13,14.3,#
2017,1,14,14.4,#
2017,1,15,14.1,#
2017,1,16,14.6,#
2017,1,17,16.7,#
2017,1,18,18.1,#
2017,1,19,18.7,#
2017,1,20,16.0,#
2017,1,21,14.5,#
2017,1,22,14.1,#
2017,1,23,15.2,#
2017,1,24,15.8,#
2017,1,25,16.2,#
2017,1,26,16.1,#
2017,1,27,14.4,#
2017,1,28,16.6,#
2017,1,29,18.3,#
2017,1,30,17.4,#
2017,1,31,15.8,C
2017,2,1,16.9,#
2017,2,2,15.9,#
2017,2,3,15.4,#
2017,2,4,16.4,#
2017,2,5,17.0,#
2017,2,6,17.1,#
2017,2,7,16.1,#
2017,2,8,15.4,#
2017,2,9,10.9,#
2017,2,10,10.1,#
2017,2,11,10.8,#
2017,2,12,12.9,#
2017,2,13,13.8,#
2017,2,14,15.9,#
2017,2,15,15.8,#
2017,2,16,15.9,#
2017,2,17,16.2,#
2017,2,18,17.0,#
2017,2,19,16.4,#
2017,2,20,18.6,#
2017,2,21,16.7,#
2017,2,22,16.7,#
2017,2,23,14.7,#
2017,2,24,11.4,#
2017,2,25,10.1,#
2017,2,26,10.6,#
2017,2,27,15.7,#
2017,2,28,15.7,#
2017,3,1,16.1,#
2017,3,2,17.1,#
2017,3,3,15.7,#
2017,3,4,16.8,#
2017,3,5,18.6,#
2017,3,6,17.7,#
2017,3,7,17.0,#
2017,3,8,15.4,#
2017,3,9,16.0,#
2017,3,10,16.0,#
2017,3,11,16.7,#
2017,3,12,17.1,#
2017,3,13,18.8,#
2017,3,14,16.5,#
2017,3,15,16.2,#
2017,3,16,16.9,#
2017,3,17,16.7,#
2017,3,18,17.2,#
2017,3,19,18.8,#
2017,3,20,18.6,#
2017,3,21,18.7,#
2017,3,22,17.4,C
2017,3,23,18.7,#
2017,3,24,18.8,#
2017,3,25,15.9,#
2017,3,26,13.7,#
2017,3,27,16.9,#
2017,3,28,18.3,#
2017,3,29,20.3,#
2017,3,30,21.0,#
2017,3,31,16.2,#
2017,4,1,15.4,#
2017,4,2,17.3,#
2017,4,3,18.0,C
2017,4,4,18.9,#
2017,4,5,20.7,#
2017,4,6,21.6,#
2017,4,7,21.6,#
2017,4,8,21.9,#
2017,4,9,21.9,#
2017,4,10,25.9,#
2017,4,11,22.3,#
2017,4,12,18.3,#
2017,4,13,18.9,#
2017,4,14,20.1,C
2017,4,15,21.6,#
2017,4,16,22.9,#
2017,4,17,23.3,#
2017,4,18,23.7,#
2017,4,19,24.6,C
2017,4,20,24.6,C
2017,4,21,22.8,C
2017,4,22,18.2,#
2017,4,23,20.2,#
2017,4,24,21.0,#
2017,4,25,20.9,#
2017,4,26,22.6,#
2017,4,27,20.7,C
2017,4,28,20.6,C
2017,4,29,19.8,#
2017,4,30,21.0,C
2017,5,1,22.3,#
2017,5,2,23.6,C
2017,5,3,25.1,#
2017,5,4,22.6,#
2017,5,5,22.9,#
2017,5,6,25.3,#
2017,5,7,25.0,#
2017,5,8,21.9,#
2017,5,9,22.4,#
2017,5,10,25.1,C
2017,5,11,25.7,#
2017,5,12,25.6,C
2017,5,13,24.4,#
2017,5,14,24.5,#
2017,5,15,24.3,#
2017,5,16,24.3,C
2017,5,17,23.9,C
2017,5,18,24.6,#
2017,5,19,23.3,C
2017,5,20,22.4,#
2017,5,21,23.0,C
2017,5,22,24.0,C
2017,5,23,25.2,#
2017,5,24,24.0,#
2017,5,25,24.5,#
2017,5,26,23.1,#
2017,5,27,23.9,#
2017,5,28,25.1,C
2017,5,29,25.0,C
2017,5,30,25.0,C
2017,5,31,25.4,#
2017,6,1,27.9,#
2017,6,2,28.8,#
2017,6,3,28.9,C
2017,6,4,28.6,C
2017,6,5,28.4,C
2017,6,6,28.4,#
2017,6,7,27.2,C
2017,6,8,27.8,#
2017,6,9,28.5,#
2017,6,10,28.1,#
2017,6,11,27.8,#
2017,6,12,25.7,#
2017,6,13,24.1,#
2017,6,14,25.6,#
2017,6,15,26.6,#
2017,6,16,27.5,#
2017,6,17,24.5,#
2017,6,18,24.8,#
2017,6,19,25.4,#
2017,6,20,25.3,C
2017,6,21,25.2,#
2017,6,22,28.0,#
2017,6,23,27.7,#
2017,6,24,27.0,#
2017,6,25,26.2,#
2017,6,26,28.5,#
2017,6,27,27.9,#
2017,6,28,27.7,#
2017,6,29,27.0,#
2017,6,30,26.2,#
2017,7,1,26.4,#
2017,7,2,26.1,#
2017,7,3,27.4,#
2017,7,4,25.1,C
2017,7,5,26.0,#
2017,7,6,26.4,#
2017,7,7,25.8,#
2017,7,8,27.1,C
2017,7,9,27.2,C
2017,7,10,27.5,C
2017,7,11,26.9,#
2017,7,12,26.9,C
2017,7,13,27.2,#
2017,7,14,27.4,C
2017,7,15,25.3,C
2017,7,16,25.8,#
2017,7,17,24.3,#
2017,7,18,24.6,C
2017,7,19,24.5,C
2017,7,20,27.7,C
2017,7,21,28.1,C
2017,7,22,26.6,#
2017,7,23,25.7,C
2017,7,24,26.1,#
2017,7,25,28.0,#
2017,7,26,27.1,#
2017,7,27,28.4,C
2017,7,28,28.6,C
2017,7,29,29.0,#
2017,7,30,29.8,#
2017,7,31,29.9,#
2017,8,1,28.5,C
2017,8,2,26.5,#
2017,8,3,24.9,#
2017,8,4,25.4,#
2017,8,5,26.9,C
2017,8,6,28.2,#
2017,8,7,26.8,#
2017,8,8,27.9,#
2017,8,9,26.6,#
2017,8,10,28.0,#
2017,8,11,27.4,C
2017,8,12,28.3,#
2017,8,13,28.1,#
2017,8,14,28.3,#
2017,8,15,27.6,#
2017,8,16,27.5,C
2017,8,17,27.2,#
2017,8,18,26.8,#
2017,8,19,26.8,C
2017,8,20,26.8,C
2017,8,21,28.2,C
2017,8,22,26.0,#
2017,8,23,25.2,C
2017,8,24,27.1,#
2017,8,25,26.4,#
2017,8,26,26.5,C
2017,8,27,23.7,C
2017,8,28,24.8,C
2017,8,29,24.3,C
2017,8,30,25.7,C
2017,8,31,25.8,#
2017,9,1,25.7,#
2017,9,2,25.8,#
2017,9,3,25.8,C
2017,9,4,25.5,#
2017,9,5,25.5,C
2017,9,6,27.1,C
2017,9,7,26.8,C
2017,9,8,26.5,C
2017,9,9,25.6,C
2017,9,10,26.9,#
2017,9,11,27.4,C
2017,9,12,27.4,#
2017,9,13,28.7,#
2017,9,14,28.2,#
2017,9,15,28.0,C
2017,9,16,28.0,C
2017,9,17,28.3,C
2017,9,18,27.8,C
2017,9,19,28.1,C
2017,9,20,28.2,#
2017,9,21,27.6,#
2017,9,22,26.2,#
2017,9,23,26.1,#
2017,9,24,27.2,C
2017,9,25,28.4,#
2017,9,26,28.4,#
2017,9,27,27.7,#
2017,9,28,28.0,C
2017,9,29,28.8,C
2017,9,30,25.8,C
2017,10,1,27.0,C
2017,10,2,26.5,C
2017,10,3,28.7,C
2017,10,4,26.8,#
2017,10,5,27.6,C
2017,10,6,27.9,C
2017,10,7,28.3,C
2017,10,8,27.6,C
2017,10,9,28.6,#
2017,10,10,28.8,#
2017,10,11,28.9,C
2017,10,12,27.8,C
2017,10,13,24.0,C
2017,10,14,21.8,#
2017,10,15,21.4,#
2017,10,16,25.4,C
2017,10,17,24.9,C
2017,10,18,24.3,#
2017,10,19,23.7,C
2017,10,20,22.2,C
2017,10,21,21.7,C
2017,10,22,20.4,C
2017,10,23,20.8,#
2017,10,24,22.4,C
2017,10,25,22.9,#
2017,10,26,22.6,C
2017,10,27,22.5,C
2017,10,28,22.7,C
2017,10,29,22.4,C
2017,10,30,20.8,#
2017,10,31,19.5,#
2017,11,1,20.9,C
2017,11,2,20.5,C
2017,11,3,22.3,C
2017,11,4,21.4,C
2017,11,5,20.6,C
2017,11,6,21.4,C
2017,11,7,21.7,C
2017,11,8,23.9,#
2017,11,9,23.4,#
2017,11,10,23.3,C
2017,11,11,23.6,#
2017,11,12,20.9,#
2017,11,13,21.6,C
2017,11,14,22.3,C
2017,11,15,23.1,C
2017,11,16,22.8,C
2017,11,17,23.2,C
2017,11,18,20.0,C
2017,11,19,19.1,C
2017,11,20,17.9,C
2017,11,21,18.0,#
2017,11,22,17.2,C
2017,11,23,15.2,#
2017,11,24,16.8,C
2017,11,25,17.1,C
2017,11,26,18.5,C
2017,11,27,19.0,#
2017,11,28,21.1,C
2017,11,29,21.8,C
2017,11,30,21.7,C
2017,12,1,20.1,C
2017,12,2,17.7,C
2017,12,3,19.2,C
2017,12,4,17.9,C
2017,12,5,18.0,C
2017,12,6,17.9,C
2017,12,7,18.2,C
2017,12,8,15.6,C
2017,12,9,12.3,C
2017,12,10,14.8,C
2017,12,11,17.4,C
2017,12,12,17.2,#
2017,12,13,18.3,#
2017,12,14,18.4,C
2017,12,15,18.9,C
2017,12,16,12.3,C
2017,12,17,11.1,C
2017,12,18,9.4,C
2017,12,19,10.3,#
2017,12,20,11.8,#
2017,12,21,12.3,#
2017,12,22,15.5,C
2017,12,23,17.5,C
2017,12,24,18.2,C
2017,12,25,16.1,C
2017,12,26,16.6,C
2017,12,27,16.6,C
2017,12,28,17.5,#
2017,12,29,18.1,C
2017,12,30,18.0,C
2017,12,31,16.3,C
2018,1,1,16.4,#
2018,1,2,16.4,#
2018,1,3,18.8,C
2018,1,4,18.0,#
2018,1,5,17.0,C
2018,1,6,15.9,C
2018,1,7,16.2,C
2018,1,8,9.8,C
2018,1,9,8.2,C
2018,1,10,11.2,C
2018,1,11,12.6,C
2018,1,12,10.6,#
2018,1,13,11.0,C
2018,1,14,12.5,C
2018,1,15,14.0,#
2018,1,16,15.5,C
2018,1,17,15.2,C
2018,1,18,16.5,#
2018,1,19,17.4,C
2018,1,20,17.6,C
2018,1,21,16.7,#
2018,1,22,16.6,C
2018,1,23,17.3,#
2018,1,24,16.9,#
2018,1,25,16.2,C
2018,1,26,15.2,C
2018,1,27,13.7,C
2018,1,28,12.8,#
2018,1,29,8.8,C
2018,1,30,8.5,C
2018,1,31,7.7,C
2018,2,1,6.9,#
2018,2,2,9.5,#
2018,2,3,9.2,C
2018,2,4,9.2,C
2018,2,5,8.2,C
2018,2,6,8.1,C
2018,2,7,11.3,C
2018,2,8,11.0,#
2018,2,9,13.9,C
2018,2,10,15.5,C
2018,2,11,14.7,C
2018,2,12,11.9,C
2018,2,13,13.1,#
2018,2,14,14.8,#
2018,2,15,16.9,C
2018,2,16,16.2,C
2018,2,17,16.4,C
2018,2,18,16.4,C
2018,2,19,17.6,#
2018,2,20,17.8,C
2018,2,21,16.4,C
2018,2,22,12.9,C
2018,2,23,12.8,C
2018,2,24,15.9,C
2018,2,25,17.9,C
2018,2,26,15.9,C
2018,2,27,15.6,C
2018,2,28,17.9,#
2018,3,1,17.6,C
2018,3,2,18.9,C
2018,3,3,19.6,C
2018,3,4,19.5,C
2018,3,5,19.8,#
2018,3,6,17.7,C
2018,3,7,17.7,C
2018,3,8,12.6,C
2018,3,9,11.0,#
2018,3,10,13.2,C
2018,3,11,15.6,C
2018,3,12,17.1,C
2018,3,13,17.8,#
2018,3,14,19.2,C
2018,3,15,19.6,C
2018,3,16,19.0,C
2018,3,17,18.5,C
2018,3,18,19.0,#
2018,3,19,20.0,C
2018,3,20,16.7,#
2018,3,21,14.4,C
2018,3,22,16.2,#
2018,3,23,17.8,C
2018,3,24,19.5,C
2018,3,25,20.6,#
2018,3,26,20.3,C
2018,3,27,20.7,C
2018,3,28,20.6,C
2018,3,29,20.7,#
2018,3,30,21.0,#
2018,3,31,21.8,C
2018,4,1,21.1,C
2018,4,2,20.9,C
2018,4,3,21.0,C
2018,4,4,21.8,C
2018,4,5,22.2,C
2018,4,6,17.3,C
2018,4,7,15.7,#
2018,4,8,16.9,#
2018,4,9,19.1,#
2018,4,10,20.8,#
2018,4,11,22.2,#
2018,4,12,23.3,C
2018,4,13,23.7,C
2018,4,14,23.9,C
2018,4,15,18.2,C
2018,4,16,17.1,C
2018,4,17,17.7,C
2018,4,18,20.8,C
2018,4,19,21.3,C
2018,4,20,22.4,C
2018,4,21,22.8,#
2018,4,22,23.7,#
2018,4,23,24.0,#
2018,4,24,23.9,#
2018,4,25,22.5,#
2018,4,26,22.5,C
2018,4,27,22.4,#
2018,4,28,23.0,C
2018,4,29,23.7,#
2018,4,30,24.0,#
2018,5,1,24.5,C
2018,5,2,24.9,C
2018,5,3,22.8,#
2018,5,4,21.7,C
2018,5,5,23.4,C
2018,5,6,24.6,C
2018,5,7,24.0,#
2018,5,8,22.7,C
2018,5,9,22.9,C
2018,5,10,22.4,C
2018,5,11,22.6,#
2018,5,12,24.1,C
2018,5,13,24.6,C
2018,5,14,26.0,#
2018,5,15,26.3,#
2018,5,16,25.7,C
2018,5,17,26.6,C
2018,5,18,27.3,C
2018,5,19,27.6,C
2018,5,20,27.2,C
2018,5,21,27.0,C
2018,5,22,27.0,C
2018,5,23,27.7,#
2018,5,24,27.5,C
2018,5,25,26.5,C
2018,5,26,27.7,C
2018,5,27,28.2,C
2018,5,28,27.9,C
2018,5,29,28.5,#
2018,5,30,28.5,#
2018,5,31,28.4,C
2018,6,1,27.0,#
2018,6,2,26.5,C
2018,6,3,26.7,C
2018,6,4,26.2,#
2018,6,5,25.6,#
2018,6,6,25.9,#
2018,6,7,25.6,#
2018,6,8,24.7,#
2018,6,9,26.3,C
2018,6,10,27.4,C
2018,6,11,27.6,#
2018,6,12,25.2,#
2018,6,13,25.4,#
2018,6,14,25.4,C
2018,6,15,25.4,C
2018,6,16,27.0,C
2018,6,17,26.5,C
2018,6,18,26.9,#
2018,6,19,27.8,C
2018,6,20,28.4,C
2018,6,21,28.3,C
2018,6,22,25.3,C
2018,6,23,24.2,C
2018,6,24,26.4,C
2018,6,25,26.2,#
2018,6,26,25.3,C
2018,6,27,27.0,C
2018,6,28,27.0,C
2018,6,29,28.5,C
2018,6,30,28.8,#
2018,7,1,27.6,C
2018,7,2,25.2,C
2018,7,3,25.6,C
2018,7,4,28.6,C
2018,7,5,28.5,C
2018,7,6,27.4,C
2018,7,7,26.6,C
2018,7,8,26.9,#
2018,7,9,25.1,#
2018,7,10,26.7,C
2018,7,11,26.0,C
2018,7,12,27.5,C
2018,7,13,25.5,#
2018,7,14,25.2,C
2018,7,15,24.8,C
2018,7,16,26.1,C
2018,7,17,26.9,C
2018,7,18,25.8,C
2018,7,19,26.5,C
2018,7,20,26.1,#
2018,7,21,27.1,#
2018,7,22,27.6,C
2018,7,23,25.7,C
2018,7,24,28.5,C
2018,7,25,26.8,C
2018,7,26,27.0,C
2018,7,27,26.3,#
2018,7,28,27.9,C
2018,7,29,27.4,#
2018,7,30,27.9,C
2018,7,31,27.7,C
2018,8,1,27.0,C
2018,8,2,26.6,C
2018,8,3,28.5,C
2018,8,4,26.8,C
2018,8,5,27.5,C
2018,8,6,27.8,#
2018,8,7,28.1,#
2018,8,8,27.1,C
2018,8,9,28.6,C
2018,8,10,25.3,C
2018,8,11,25.8,#
2018,8,12,25.9,C
2018,8,13,27.3,C
2018,8,14,26.3,C
2018,8,15,27.0,C
2018,8,16,26.4,C
2018,8,17,25.2,C
2018,8,18,25.7,C
2018,8,19,25.7,C
2018,8,20,25.9,#
2018,8,21,26.4,C
2018,8,22,24.2,C
2018,8,23,24.4,#
2018,8,24,25.6,#
2018,8,25,28.1,C
2018,8,26,24.8,C
2018,8,27,24.7,#
2018,8,28,24.9,#
2018,8,29,25.8,C
2018,8,30,27.1,C
2018,8,31,26.8,C
2018,9,1,24.8,C
2018,9,2,24.6,C
2018,9,3,25.5,C
2018,9,4,27.0,#
2018,9,5,26.8,C
2018,9,6,26.9,C
2018,9,7,26.7,#
2018,9,8,24.5,C
2018,9,9,24.6,#
2018,9,10,24.6,#
2018,9,11,25.3,#
2018,9,12,26.8,C
2018,9,13,26.1,C
2018,9,14,26.7,C
2018,9,15,26.2,C
2018,9,16,23.4,C
2018,9,17,26.0,C
2018,9,18,26.6,C
2018,9,19,25.6,C
2018,9,20,26.5,C
2018,9,21,26.9,#
2018,9,22,26.3,C
2018,9,23,27.3,C
2018,9,24,24.2,#
2018,9,25,24.9,C
2018,9,26,24.5,C
2018,9,27,25.5,#
2018,9,28,25.4,#
2018,9,29,23.5,C
2018,9,30,25.4,#
2018,10,1,22.9,C
2018,10,2,25.2,C
2018,10,3,24.6,C
2018,10,4,23.4,C
2018,10,5,22.8,C
2018,10,6,22.7,C
2018,10,7,24.4,C
2018,10,8,25.0,C
2018,10,9,24.2,C
2018,10,10,23.0,C
2018,10,11,22.5,C
2018,10,12,21.9,C
2018,10,13,22.7,C
2018,10,14,24.0,C
2018,10,15,24.2,C
2018,10,16,23.2,#
2018,10,17,21.6,C
2018,10,18,20.9,#
2018,10,19,23.2,C
2018,10,20,23.5,C
2018,10,21,22.9,#
2018,10,22,23.9,C
2018,10,23,23.7,C
2018,10,24,23.4,C
2018,10,25,24.5,C
2018,10,26,23.6,C